Sidney, MT

2:33 PM MST on February 23, 2017 (GMT -0700)
Sidney-Richland Municipal

Weather History for KSDY - March, 2014

Change the Weather History Date:

Thursday, March 13, 2014

  Actual Average Record
Temperature  
Mean Temperature 42 °F -  
Max Temperature 55 °F 42 °F 75 °F (2012)
Min Temperature 28 °F 19 °F -22 °F (1960)
Degree Days  
Heating Degree Days 24    
Moisture  
Dew Point 26 °F    
Average Humidity 59    
Maximum Humidity 93    
Minimum Humidity 33    
Precipitation  
Precipitation 0.00 in - - ()
Sea Level Pressure  
Sea Level Pressure 29.75 in    
Wind  
Wind Speed 11 mph (West)    
Max Wind Speed 24 mph    
Max Gust Speed 30 mph    
Visibility 10 miles    
Events      
Averages and records for this station are not official NWS values.
T = Trace of Precipitation, MM = Missing Value Source: NWS Daily Summary

Daily Weather History Graph

Daily Weather History Graph

Search for Another Location

Airport or City:

Trip Planner

Search our weather history database for the weather conditions in past years. The results will help you decide how hot, cold, wet, or windy it might be!

Date:

Astronomy

Mar. 13, 2014 Rise Set
Actual Time 7:13 AM MDT 6:59 PM MDT
Civil Twilight 6:43 AM MDT 7:30 PM MDT
Nautical Twilight 6:07 AM MDT 8:06 PM MDT
Astronomical Twilight 5:30 AM MDT 8:42 PM MDT
Moon 4:19 PM MDT (3/13) 5:31 AM MDT (3/13)
Length of Visible Light 12h 47m
Length of Day
11h 45m
Waxing Gibbous, 92% of the Moon is Illuminated
Mar 13
Waxing Gibbous
Mar 16
Full
Mar 23
Last Quarter
Mar 30
New
Apr 7
First Quarter

Hourly Weather History & Observations

Time (MDT) Temp. Windchill Dew Point Humidity Pressure Visibility Wind Dir Wind Speed Gust Speed Precip Events Conditions
12:15 AM 33.8 °F 30.8 °F 26.6 °F 75% 29.88 in 10.0 mi SSW 3.5 mph - N/A   Clear
12:35 AM 32.0 °F 27.5 °F 28.4 °F 87% 29.87 in 10.0 mi SSW 4.6 mph - N/A   Clear
12:55 AM 33.8 °F 27.7 °F 28.4 °F 81% 29.86 in 10.0 mi SSW 6.9 mph - N/A   Clear
1:15 AM 33.8 °F 27.7 °F 28.4 °F 81% 29.85 in 10.0 mi SSW 6.9 mph - N/A   Clear
1:35 AM 33.8 °F - 28.4 °F 81% 29.84 in 10.0 mi Calm Calm - N/A   Clear
2:15 AM 33.8 °F 25.3 °F 28.4 °F 81% 29.83 in 10.0 mi SSW 11.5 mph - N/A   Clear
2:35 AM 33.8 °F 26.4 °F 28.4 °F 81% 29.82 in 10.0 mi SSW 9.2 mph - N/A   Clear
2:55 AM 33.8 °F 24.8 °F 28.4 °F 81% 29.80 in 10.0 mi South 12.7 mph - N/A   Clear
3:15 AM 33.8 °F 24.8 °F 28.4 °F 81% 29.79 in 10.0 mi South 12.7 mph - N/A   Clear
3:35 AM 33.8 °F 25.8 °F 28.4 °F 81% 29.78 in 10.0 mi SSW 10.4 mph - N/A   Clear
3:55 AM 33.8 °F 25.3 °F 26.6 °F 75% 29.77 in 10.0 mi SSW 11.5 mph - N/A   Clear
4:15 AM 32.0 °F 23.0 °F 26.6 °F 80% 29.76 in 10.0 mi SSW 11.5 mph - N/A   Clear
4:35 AM 32.0 °F 23.6 °F 26.6 °F 80% 29.76 in 10.0 mi SSW 10.4 mph - N/A   Clear
4:55 AM 32.0 °F 23.0 °F 28.4 °F 87% 29.75 in 10.0 mi SSW 11.5 mph - N/A   Clear
5:15 AM 30.2 °F 21.9 °F 26.6 °F 86% 29.75 in 10.0 mi SSW 9.2 mph - N/A   Clear
5:35 AM 30.2 °F 22.6 °F 26.6 °F 86% 29.74 in 10.0 mi South 8.1 mph - N/A   Clear
5:55 AM 30.2 °F 25.4 °F 26.6 °F 86% 29.74 in 10.0 mi South 4.6 mph - N/A   Clear
6:15 AM 28.4 °F 20.4 °F 26.6 °F 93% 29.73 in 10.0 mi South 8.1 mph - N/A   Clear
6:35 AM 30.2 °F 21.9 °F 26.6 °F 86% 29.73 in 10.0 mi SSW 9.2 mph - N/A   Clear
6:55 AM 28.4 °F 21.2 °F 26.6 °F 93% 29.71 in 10.0 mi SW 6.9 mph - N/A   Clear
7:35 AM 28.4 °F 20.4 °F 24.8 °F 86% 29.71 in 10.0 mi SSW 8.1 mph - N/A   Clear
7:55 AM 30.2 °F 21.9 °F 28.4 °F 93% 29.69 in 10.0 mi SSW 9.2 mph - N/A   Clear
8:35 AM 35.6 °F 29.9 °F 28.4 °F 75% 29.70 in 10.0 mi SSE 6.9 mph - N/A   Clear
8:55 AM 37.4 °F 31.4 °F 30.2 °F 75% 29.69 in 10.0 mi SSE 8.1 mph - N/A   Clear
9:15 AM 39.2 °F 33.0 °F 30.2 °F 70% 29.69 in 10.0 mi West 9.2 mph - N/A   Clear
9:35 AM 46.4 °F 40.1 °F 28.4 °F 50% 29.68 in 10.0 mi West 15.0 mph 25.3 mph N/A   Clear
9:55 AM 48.2 °F - 26.6 °F 43% 29.68 in 10.0 mi West 17.3 mph 24.2 mph N/A   Clear
10:15 AM 48.2 °F - 26.6 °F 43% 29.67 in 10.0 mi West 18.4 mph 25.3 mph N/A   Clear
10:35 AM 48.2 °F - 26.6 °F 43% 29.67 in 10.0 mi West 20.7 mph 26.5 mph N/A   Clear
10:55 AM 50.0 °F - 26.6 °F 40% 29.66 in 10.0 mi West 19.6 mph 28.8 mph N/A   Clear
11:15 AM 51.8 °F - 26.6 °F 38% 29.66 in 10.0 mi WNW 20.7 mph 27.6 mph N/A   Clear
11:35 AM 51.8 °F - 26.6 °F 38% 29.67 in 10.0 mi West 18.4 mph 27.6 mph N/A   Clear
11:55 AM 53.6 °F - 26.6 °F 35% 29.67 in 10.0 mi WNW 19.6 mph 27.6 mph N/A   Clear
12:15 PM 53.6 °F - 26.6 °F 35% 29.67 in 10.0 mi West 17.3 mph 25.3 mph N/A   Clear
12:35 PM 53.6 °F - 26.6 °F 35% 29.67 in 10.0 mi WNW 16.1 mph - N/A   Clear
12:55 PM 53.6 °F - 26.6 °F 35% 29.67 in 10.0 mi WNW 17.3 mph 23.0 mph N/A   Clear
1:15 PM 55.4 °F - 28.4 °F 36% 29.67 in 10.0 mi WNW 18.4 mph 23.0 mph N/A   Clear
1:35 PM 55.4 °F - 26.6 °F 33% 29.67 in 10.0 mi WNW 17.3 mph 23.0 mph N/A   Clear
1:55 PM 53.6 °F - 26.6 °F 35% 29.68 in 10.0 mi NW 21.9 mph 26.5 mph N/A   Partly Cloudy
2:15 PM 51.8 °F - 24.8 °F 35% 29.69 in 10.0 mi WNW 21.9 mph 28.8 mph N/A   Mostly Cloudy
2:35 PM 51.8 °F - 24.8 °F 35% 29.69 in 10.0 mi NW 16.1 mph 23.0 mph N/A   Scattered Clouds
2:55 PM 53.6 °F - 26.6 °F 35% 29.69 in 10.0 mi WNW 18.4 mph 27.6 mph N/A   Clear
3:15 PM 53.6 °F - 24.8 °F 33% 29.70 in 10.0 mi NNW 24.2 mph 29.9 mph N/A   Clear
3:35 PM 51.8 °F - 26.6 °F 38% 29.71 in 10.0 mi NW 19.6 mph 28.8 mph N/A   Clear
3:55 PM 51.8 °F - 26.6 °F 38% 29.73 in 10.0 mi NW 21.9 mph 28.8 mph N/A   Scattered Clouds
4:15 PM 50.0 °F - 26.6 °F 40% 29.74 in 10.0 mi NW 16.1 mph 26.5 mph N/A   Overcast
4:35 PM 48.2 °F - 26.6 °F 43% 29.74 in 10.0 mi NW 16.1 mph 24.2 mph N/A   Overcast
4:55 PM 48.2 °F - 28.4 °F 46% 29.73 in 10.0 mi West 17.3 mph 24.2 mph N/A   Overcast
5:15 PM 50.0 °F - 26.6 °F 40% 29.73 in 10.0 mi West 17.3 mph 26.5 mph N/A   Partly Cloudy
5:35 PM 48.2 °F - 26.6 °F 43% 29.73 in 10.0 mi West 19.6 mph 24.2 mph N/A   Clear
5:55 PM 48.2 °F - 26.6 °F 43% 29.74 in 10.0 mi NW 23.0 mph 29.9 mph N/A   Mostly Cloudy
6:15 PM 46.4 °F 39.8 °F 21.2 °F 37% 29.75 in 10.0 mi NW 16.1 mph 27.6 mph N/A   Partly Cloudy
6:35 PM 46.4 °F 39.2 °F 24.8 °F 43% 29.76 in 10.0 mi NW 18.4 mph 27.6 mph N/A   Clear
6:55 PM 44.6 °F 37.8 °F 24.8 °F 46% 29.77 in 10.0 mi NW 15.0 mph 24.2 mph N/A   Clear
7:15 PM 42.8 °F 35.8 °F 24.8 °F 49% 29.78 in 10.0 mi NW 13.8 mph 17.3 mph N/A   Clear
7:35 PM 42.8 °F 37.0 °F 24.8 °F 49% 29.79 in 10.0 mi WNW 10.4 mph - N/A   Clear
7:55 PM 39.2 °F 32.5 °F 24.8 °F 56% 29.79 in 10.0 mi WNW 10.4 mph 17.3 mph N/A   Clear
8:15 PM 39.2 °F 33.0 °F 23.0 °F 52% 29.79 in 10.0 mi West 9.2 mph - N/A   Clear
8:35 PM 37.4 °F 30.3 °F 23.0 °F 56% 29.80 in 10.0 mi West 10.4 mph - N/A   Clear
8:55 PM 37.4 °F 30.8 °F 23.0 °F 56% 29.80 in 10.0 mi West 9.2 mph - N/A   Clear
9:15 PM 35.6 °F 28.6 °F 24.8 °F 65% 29.81 in 10.0 mi West 9.2 mph - N/A   Clear
9:35 PM 35.6 °F 28.0 °F 24.8 °F 65% 29.81 in 10.0 mi West 10.4 mph - N/A   Clear
9:55 PM 35.6 °F 29.2 °F 23.0 °F 60% 29.81 in 10.0 mi West 8.1 mph - N/A   Clear
10:15 PM 33.8 °F 27.7 °F 23.0 °F 65% 29.82 in 10.0 mi WNW 6.9 mph - N/A   Clear
10:35 PM 33.8 °F 29.6 °F 23.0 °F 65% 29.83 in 10.0 mi WNW 4.6 mph - N/A   Clear
10:55 PM 33.8 °F 27.7 °F 24.8 °F 70% 29.83 in 10.0 mi NW 6.9 mph - N/A   Clear
11:15 PM 33.8 °F 27.7 °F 23.0 °F 65% 29.83 in 10.0 mi WNW 6.9 mph - N/A   Clear
11:35 PM 32.0 °F 27.5 °F 23.0 °F 69% 29.83 in 10.0 mi West 4.6 mph - N/A   Clear